Simultaneous Nadir Overpasses (SNOs) Predictions

Prediction of SNOs between GOES-15 and LANDSAT-8 Satellite Orbit:

Table of predicted SNOs for the next 14.0 days since TLE Epoch: 8/22/2025
Index Date Time (GOES-15) GOES-15 Lat,Lon LANDSAT-8 Lat,Lon Distance(km) Time Diff (sec)
1 08/23/2025 18:08:20 -0.34, 61.79 -0.40, 61.40 43.84 80
2 08/25/2025 17:53:28 -0.32, 61.83 0.20, 64.37 288.66 80
3 08/26/2025 06:17:23 0.37, 61.73 0.93, 59.22 285.36 80
4 08/28/2025 06:02:32 0.36, 61.76 0.25, 62.17 46.92 80
5 08/30/2025 05:50:20 0.36, 61.81 -0.37, 65.13 378.68 80
6 08/30/2025 18:14:21 -0.41, 61.93 -0.85, 59.97 223.83 80
7 09/01/2025 17:59:30 -0.40, 61.99 -0.21, 62.93 107.18 80
8 09/02/2025 06:23:24 0.44, 61.89 1.34, 57.78 467.77 80
9 09/03/2025 17:47:18 -0.40, 62.04 0.43, 65.89 437.78 80
10 09/04/2025 06:11:12 0.44, 61.95 0.69, 60.74 137.22 80
